FLX306 SBCT-SBBR

Flight info

Callsign FLX306
Flight time 1h 27m
Altitude 35000
Route GIKLU UZ5 VUDOT
Aircraft B738/M-SDE2E3FGHIRWXY/LB1

Departure

Time 2026-05-08 15:59
Airport Curitiba-Afonso Pena International Airport (SBCT)

Arrival

Time 2026-05-08 17:26
Airport Presidente Juscelino Kubitschek International Airport (SBBR)
Time Latitude Longitude Altitude Speed Heading
2026-05-08 15:38 -25.53525 -49.17265 2992 ft 0 kts 209°
2026-05-08 15:50 -25.53507 -49.17254 2992 ft 4 kts 211°
2026-05-08 15:50 -25.53487 -49.17241 2992 ft 4 kts 207°
2026-05-08 15:50 -25.53463 -49.17234 2989 ft 4 kts 165°
2026-05-08 15:50 -25.53441 -49.17247 2990 ft 3 kts 135°
2026-05-08 15:51 -25.53436 -49.17253 2990 ft 0 kts 134°
2026-05-08 15:54 -25.53436 -49.17252 2990 ft 1 kts 135°
2026-05-08 15:54 -25.53457 -49.17229 2989 ft 6 kts 135°
2026-05-08 15:55 -25.53487 -49.17197 2989 ft 7 kts 140°
2026-05-08 15:55 -25.53567 -49.17116 2990 ft 8 kts 135°
2026-05-08 15:55 -25.53604 -49.17075 2990 ft 7 kts 135°
2026-05-08 15:56 -25.53634 -49.17031 2989 ft 7 kts 109°
2026-05-08 15:56 -25.53621 -49.16980 2989 ft 7 kts 62°
2026-05-08 15:56 -25.53613 -49.16927 2989 ft 7 kts 88°
2026-05-08 15:56 -25.53613 -49.16904 2989 ft 0 kts 89°
2026-05-08 15:57 -25.53613 -49.16862 2989 ft 7 kts 90°
2026-05-08 15:57 -25.53612 -49.16810 2989 ft 7 kts 89°
2026-05-08 15:58 -25.53604 -49.16761 2990 ft 7 kts 48°
2026-05-08 15:58 -25.53575 -49.16766 2990 ft 5 kts 322°
2026-05-08 15:58 -25.53416 -49.16941 2991 ft 67 kts 315°
2026-05-08 15:58 -25.52934 -49.17480 2990 ft 129 kts 315°
2026-05-08 15:59 -25.52209 -49.18309 3295 ft 157 kts 312°
2026-05-08 15:59 -25.51504 -49.19220 4283 ft 143 kts 296°
2026-05-08 15:59 -25.51119 -49.20142 5366 ft 131 kts 299°
2026-05-08 15:59 -25.50666 -49.21100 5672 ft 154 kts 300°
2026-05-08 16:00 -25.50131 -49.22193 5943 ft 174 kts 300°
2026-05-08 16:00 -25.49507 -49.23439 6096 ft 196 kts 301°
2026-05-08 16:00 -25.48811 -49.24813 6413 ft 209 kts 301°
2026-05-08 16:00 -25.48054 -49.26184 6922 ft 213 kts 311°
2026-05-08 16:01 -25.46804 -49.27209 7176 ft 236 kts 331°
2026-05-08 16:01 -25.45198 -49.27747 7825 ft 248 kts 347°
2026-05-08 16:01 -25.43442 -49.27679 8564 ft 262 kts
2026-05-08 16:01 -25.41710 -49.26893 9271 ft 276 kts 18°
2026-05-08 16:02 -25.39980 -49.25929 10036 ft 278 kts 19°
2026-05-08 16:02 -25.38230 -49.24946 10538 ft 291 kts 19°
2026-05-08 16:02 -25.36343 -49.23903 10695 ft 314 kts 20°
2026-05-08 16:02 -25.34311 -49.22801 10851 ft 334 kts 17°
2026-05-08 16:03 -25.32031 -49.22226 10987 ft 342 kts 356°
2026-05-08 16:03 -25.29618 -49.22384 11193 ft 351 kts 351°
2026-05-08 16:03 -25.27169 -49.22674 11659 ft 356 kts 350°
2026-05-08 16:03 -25.24691 -49.22991 12221 ft 360 kts 350°
2026-05-08 16:04 -25.22184 -49.23313 12736 ft 365 kts 350°
2026-05-08 16:04 -25.19664 -49.23631 13198 ft 372 kts 350°
2026-05-08 16:04 -25.17056 -49.23953 13779 ft 374 kts 351°
2026-05-08 16:04 -25.14490 -49.24261 14269 ft 376 kts 351°
2026-05-08 16:05 -25.11876 -49.24571 14754 ft 379 kts 351°
2026-05-08 16:05 -25.09250 -49.24878 15294 ft 380 kts 351°
2026-05-08 16:05 -25.06610 -49.25186 15774 ft 382 kts 351°
2026-05-08 16:05 -25.03954 -49.25494 16229 ft 385 kts 351°
2026-05-08 16:06 -25.01278 -49.25805 16740 ft 386 kts 351°
2026-05-08 16:06 -24.98613 -49.26114 17281 ft 386 kts 351°
2026-05-08 16:06 -24.95933 -49.26424 17666 ft 389 kts 351°
2026-05-08 16:06 -24.93220 -49.26741 18071 ft 392 kts 351°
2026-05-08 16:07 -24.90489 -49.27060 18344 ft 398 kts 351°
2026-05-08 16:07 -24.87706 -49.27385 18468 ft 407 kts 351°
2026-05-08 16:07 -24.84847 -49.27718 18542 ft 416 kts 351°
2026-05-08 16:07 -24.81993 -49.28049 18737 ft 420 kts 351°
2026-05-08 16:08 -24.79080 -49.28385 19119 ft 419 kts 351°
2026-05-08 16:08 -24.76166 -49.28719 19407 ft 421 kts 351°
2026-05-08 16:08 -24.73239 -49.29055 19639 ft 424 kts 350°
2026-05-08 16:08 -24.70295 -49.29394 19898 ft 426 kts 350°
2026-05-08 16:09 -24.67341 -49.29735 20184 ft 427 kts 350°
2026-05-08 16:09 -24.64380 -49.30077 20477 ft 428 kts 350°
2026-05-08 16:09 -24.61411 -49.30420 20764 ft 429 kts 350°
2026-05-08 16:09 -24.58433 -49.30763 21022 ft 431 kts 350°
2026-05-08 16:10 -24.55436 -49.31109 21227 ft 434 kts 350°
2026-05-08 16:10 -24.52423 -49.31457 21462 ft 436 kts 350°
2026-05-08 16:10 -24.49398 -49.31805 21699 ft 438 kts 350°
2026-05-08 16:10 -24.46360 -49.32155 21873 ft 440 kts 349°
2026-05-08 16:11 -24.43341 -49.32504 21992 ft 444 kts 349°
2026-05-08 16:11 -24.40265 -49.32857 22229 ft 445 kts 349°
2026-05-08 16:11 -24.37175 -49.33212 22468 ft 446 kts 349°
2026-05-08 16:11 -24.34076 -49.33567 22683 ft 447 kts 349°
2026-05-08 16:12 -24.30968 -49.33924 22895 ft 449 kts 349°
2026-05-08 16:12 -24.27863 -49.34281 23084 ft 450 kts 349°
2026-05-08 16:12 -24.24733 -49.34640 23270 ft 452 kts 349°
2026-05-08 16:12 -24.21606 -49.35003 23581 ft 448 kts 348°
2026-05-08 16:13 -24.18553 -49.35347 24331 ft 435 kts 348°
2026-05-08 16:13 -24.15598 -49.35679 24731 ft 432 kts 348°
2026-05-08 16:13 -24.12552 -49.36028 24862 ft 437 kts 348°
2026-05-08 16:13 -24.09518 -49.36379 25000 ft 440 kts 348°
2026-05-08 16:14 -24.06510 -49.36725 25222 ft 441 kts 348°
2026-05-08 16:14 -24.03452 -49.37076 25423 ft 443 kts 348°
2026-05-08 16:14 -24.00385 -49.37427 25657 ft 443 kts 348°
2026-05-08 16:14 -23.97322 -49.37777 25958 ft 441 kts 348°
2026-05-08 16:15 -23.94266 -49.38125 26200 ft 442 kts 348°
2026-05-08 16:15 -23.91193 -49.38476 26340 ft 445 kts 348°
2026-05-08 16:15 -23.88099 -49.38830 26490 ft 447 kts 348°
2026-05-08 16:15 -23.84985 -49.39186 26549 ft 451 kts 348°
2026-05-08 16:16 -23.81847 -49.39545 26587 ft 456 kts 348°
2026-05-08 16:16 -23.78716 -49.39903 26608 ft 459 kts 348°
2026-05-08 16:16 -23.75533 -49.40265 26647 ft 461 kts 348°
2026-05-08 16:16 -23.72335 -49.40628 26665 ft 463 kts 349°
2026-05-08 16:17 -23.69125 -49.40992 26678 ft 464 kts 349°
2026-05-08 16:17 -23.66993 -49.41234 26681 ft 465 kts 348°
2026-05-08 16:17 -23.62683 -49.41722 26704 ft 466 kts 349°
2026-05-08 16:17 -23.59452 -49.42089 26720 ft 467 kts 349°
2026-05-08 16:18 -23.56220 -49.42456 26731 ft 467 kts 349°
2026-05-08 16:18 -23.52984 -49.42823 26735 ft 468 kts 349°
2026-05-08 16:18 -23.49746 -49.43190 26751 ft 468 kts 349°
2026-05-08 16:18 -23.46497 -49.43559 26767 ft 468 kts 349°
2026-05-08 16:19 -23.43249 -49.43885 26808 ft 471 kts 353°
2026-05-08 16:19 -23.39997 -49.43573 26787 ft 483 kts
2026-05-08 16:19 -23.36732 -49.42679 26895 ft 483 kts
2026-05-08 16:19 -23.33462 -49.41809 26946 ft 482 kts
2026-05-08 16:20 -23.30192 -49.40982 26960 ft 483 kts
2026-05-08 16:20 -23.26905 -49.40190 26981 ft 483 kts
2026-05-08 16:20 -23.23628 -49.39408 27001 ft 483 kts
2026-05-08 16:20 -23.20339 -49.38613 27035 ft 483 kts
2026-05-08 16:21 -23.17066 -49.37745 27069 ft 485 kts
2026-05-08 16:21 -23.13801 -49.36831 27138 ft 484 kts
2026-05-08 16:21 -23.10534 -49.35902 27186 ft 484 kts
2026-05-08 16:21 -23.07278 -49.34980 27224 ft 485 kts
2026-05-08 16:22 -23.04006 -49.34062 27268 ft 484 kts
2026-05-08 16:22 -23.00748 -49.33154 27431 ft 482 kts
2026-05-08 16:22 -22.97516 -49.32258 27746 ft 477 kts
2026-05-08 16:22 -22.94317 -49.31374 28142 ft 472 kts
2026-05-08 16:23 -22.91145 -49.30498 28525 ft 469 kts
2026-05-08 16:23 -22.88031 -49.29640 28845 ft 467 kts
2026-05-08 16:23 -22.84874 -49.28774 29126 ft 467 kts
2026-05-08 16:23 -22.81733 -49.27915 29417 ft 466 kts
2026-05-08 16:24 -22.78584 -49.27054 29735 ft 465 kts
2026-05-08 16:24 -22.75449 -49.26197 30024 ft 464 kts
2026-05-08 16:24 -22.72307 -49.25338 30223 ft 465 kts
2026-05-08 16:24 -22.69163 -49.24479 30375 ft 467 kts
2026-05-08 16:25 -22.66007 -49.23617 30585 ft 468 kts
2026-05-08 16:25 -22.62851 -49.22754 30835 ft 467 kts
2026-05-08 16:25 -22.59701 -49.21893 31073 ft 467 kts
2026-05-08 16:25 -22.56542 -49.21030 31273 ft 468 kts
2026-05-08 16:26 -22.53382 -49.20142 31474 ft 470 kts
2026-05-08 16:26 -22.50265 -49.19241 31708 ft 470 kts
2026-05-08 16:26 -22.47106 -49.18322 31959 ft 470 kts
2026-05-08 16:26 -22.43941 -49.17405 32128 ft 472 kts
2026-05-08 16:27 -22.40761 -49.16491 32319 ft 473 kts
2026-05-08 16:27 -22.37577 -49.15592 32572 ft 472 kts
2026-05-08 16:27 -22.34378 -49.14776 32827 ft 471 kts
2026-05-08 16:27 -22.31179 -49.14006 33042 ft 471 kts
2026-05-08 16:28 -22.27966 -49.13240 33250 ft 472 kts
2026-05-08 16:28 -22.24758 -49.12467 33462 ft 473 kts
2026-05-08 16:28 -22.21549 -49.11683 33683 ft 473 kts
2026-05-08 16:28 -22.18338 -49.10890 33881 ft 474 kts
2026-05-08 16:29 -22.15168 -49.10104 34080 ft 474 kts
2026-05-08 16:29 -22.11951 -49.09307 34312 ft 472 kts
2026-05-08 16:29 -22.08754 -49.08517 34579 ft 470 kts
2026-05-08 16:29 -22.05566 -49.07731 34799 ft 470 kts
2026-05-08 16:30 -22.02384 -49.06950 34919 ft 471 kts
2026-05-08 16:30 -21.99174 -49.06164 34915 ft 473 kts
2026-05-08 16:30 -21.92771 -49.04591 34922 ft 470 kts
2026-05-08 16:31 -21.86402 -49.03026 34927 ft 468 kts
2026-05-08 16:31 -21.80114 -49.01483 34924 ft 465 kts
2026-05-08 16:32 -21.73813 -48.99937 34932 ft 464 kts
2026-05-08 16:32 -21.67525 -48.98378 34935 ft 463 kts
2026-05-08 16:33 -21.61213 -48.97059 34922 ft 461 kts
2026-05-08 16:33 -21.54848 -48.96109 34928 ft 463 kts
2026-05-08 16:34 -21.48438 -48.95152 34935 ft 466 kts
2026-05-08 16:34 -21.42037 -48.94144 34941 ft 469 kts
2026-05-08 16:35 -21.35560 -48.93107 34943 ft 471 kts
2026-05-08 16:35 -21.29067 -48.92069 34941 ft 471 kts
2026-05-08 16:36 -21.22579 -48.91036 34931 ft 471 kts
2026-05-08 16:36 -21.16093 -48.90001 34953 ft 472 kts
2026-05-08 16:37 -21.09592 -48.88961 34939 ft 477 kts
2026-05-08 16:37 -21.02995 -48.87904 34950 ft 480 kts
2026-05-08 16:38 -20.96379 -48.86844 34947 ft 482 kts
2026-05-08 16:38 -20.89734 -48.85780 34941 ft 481 kts
2026-05-08 16:39 -20.83153 -48.84727 34931 ft 475 kts
2026-05-08 16:39 -20.76636 -48.83688 34949 ft 473 kts
2026-05-08 16:40 -20.70171 -48.82653 34943 ft 472 kts
2026-05-08 16:40 -20.63673 -48.81724 34953 ft 469 kts 360°
2026-05-08 16:41 -20.57157 -48.81099 34944 ft 470 kts 359°
2026-05-08 16:42 -20.47356 -48.80141 34952 ft 473 kts 360°
2026-05-08 16:42 -20.40793 -48.79453 34952 ft 475 kts
2026-05-08 16:43 -20.34247 -48.78764 34931 ft 476 kts
2026-05-08 16:43 -20.27652 -48.78074 34945 ft 476 kts
2026-05-08 16:44 -20.21047 -48.77386 34947 ft 477 kts
2026-05-08 16:44 -20.14419 -48.76695 34942 ft 478 kts
2026-05-08 16:45 -20.07802 -48.76006 34936 ft 478 kts
2026-05-08 16:45 -20.01180 -48.75316 34948 ft 478 kts
2026-05-08 16:46 -19.94588 -48.74631 34942 ft 479 kts
2026-05-08 16:46 -19.87946 -48.73939 34948 ft 479 kts
2026-05-08 16:47 -19.82427 -48.73367 34938 ft 479 kts
2026-05-08 16:47 -19.75780 -48.72677 34949 ft 479 kts
2026-05-08 16:48 -19.69134 -48.71988 34952 ft 480 kts
2026-05-08 16:48 -19.62476 -48.71298 34964 ft 480 kts
2026-05-08 16:49 -19.55824 -48.70609 34955 ft 480 kts
2026-05-08 16:49 -19.49209 -48.69925 34964 ft 480 kts
2026-05-08 16:50 -19.42561 -48.69238 34973 ft 480 kts
2026-05-08 16:50 -19.35911 -48.68551 34954 ft 480 kts
2026-05-08 16:51 -19.29264 -48.67865 34959 ft 480 kts
2026-05-08 16:51 -19.22610 -48.67178 34969 ft 480 kts
2026-05-08 16:52 -19.16008 -48.66500 34975 ft 479 kts
2026-05-08 16:52 -19.09361 -48.65883 34969 ft 479 kts 360°
2026-05-08 16:53 -18.99390 -48.64996 34972 ft 479 kts
2026-05-08 16:53 -18.92743 -48.64394 34977 ft 479 kts
2026-05-08 16:54 -18.86133 -48.63792 34974 ft 479 kts
2026-05-08 16:54 -18.79485 -48.63188 34982 ft 480 kts
2026-05-08 16:55 -18.72833 -48.62584 34979 ft 480 kts
2026-05-08 16:55 -18.66181 -48.61980 34982 ft 480 kts
2026-05-08 16:56 -18.59521 -48.61367 34978 ft 480 kts
2026-05-08 16:56 -18.52868 -48.60752 34980 ft 480 kts
2026-05-08 16:57 -18.46217 -48.60138 34975 ft 479 kts
2026-05-08 16:57 -18.39571 -48.59526 34973 ft 479 kts
2026-05-08 16:58 -18.32927 -48.58915 34969 ft 479 kts
2026-05-08 16:58 -18.26346 -48.57609 34983 ft 486 kts 12°
2026-05-08 16:59 -18.19903 -48.55365 34971 ft 488 kts 15°
2026-05-08 16:59 -18.13475 -48.53081 34973 ft 487 kts 14°
2026-05-08 17:00 -18.07025 -48.50890 34968 ft 487 kts 13°
2026-05-08 17:00 -18.00565 -48.48753 34979 ft 486 kts 13°
2026-05-08 17:01 -17.94108 -48.46629 34971 ft 486 kts 13°
2026-05-08 17:01 -17.87689 -48.44515 34983 ft 486 kts 13°
2026-05-08 17:02 -17.81223 -48.42384 34974 ft 487 kts 13°
2026-05-08 17:02 -17.74768 -48.40257 34981 ft 487 kts 13°
2026-05-08 17:03 -17.68296 -48.38127 34969 ft 487 kts 14°
2026-05-08 17:03 -17.61824 -48.35997 34981 ft 487 kts 14°
2026-05-08 17:04 -17.55386 -48.33881 34647 ft 486 kts 14°
2026-05-08 17:04 -17.52177 -48.32826 33677 ft 485 kts 14°
2026-05-08 17:04 -17.48953 -48.31767 32914 ft 482 kts 14°
2026-05-08 17:05 -17.45746 -48.30714 32201 ft 483 kts 14°
2026-05-08 17:05 -17.42537 -48.29661 31484 ft 484 kts 14°
2026-05-08 17:05 -17.39328 -48.28609 30725 ft 485 kts 15°
2026-05-08 17:05 -17.36097 -48.27551 29926 ft 488 kts 15°
2026-05-08 17:06 -17.32851 -48.26487 29007 ft 489 kts 15°
2026-05-08 17:06 -17.29592 -48.25419 28120 ft 490 kts 15°
2026-05-08 17:06 -17.26335 -48.24353 27270 ft 490 kts 15°
2026-05-08 17:06 -17.23101 -48.23293 26682 ft 484 kts 15°
2026-05-08 17:07 -17.19904 -48.22245 26064 ft 479 kts 16°
2026-05-08 17:07 -17.16740 -48.21209 25463 ft 474 kts 16°
2026-05-08 17:07 -17.13602 -48.20182 24850 ft 469 kts 16°
2026-05-08 17:07 -17.10497 -48.19167 24231 ft 466 kts 16°
2026-05-08 17:08 -17.07459 -48.18175 23639 ft 462 kts 17°
2026-05-08 17:08 -17.04405 -48.17178 22949 ft 458 kts 17°
2026-05-08 17:08 -17.01384 -48.16191 22312 ft 452 kts 17°
2026-05-08 17:08 -16.98397 -48.15216 21698 ft 447 kts 17°
2026-05-08 17:09 -16.95437 -48.14250 21106 ft 442 kts 17°
2026-05-08 17:09 -16.92515 -48.13296 20532 ft 438 kts 17°
2026-05-08 17:09 -16.89621 -48.12352 19954 ft 434 kts 17°
2026-05-08 17:09 -16.86753 -48.11416 19363 ft 430 kts 17°
2026-05-08 17:10 -16.83904 -48.10488 18773 ft 427 kts 17°
2026-05-08 17:10 -16.81073 -48.09565 18173 ft 425 kts 17°
2026-05-08 17:10 -16.78226 -48.08759 17506 ft 422 kts
2026-05-08 17:10 -16.75356 -48.08799 16887 ft 418 kts 350°
2026-05-08 17:11 -16.72523 -48.09436 16307 ft 413 kts 347°
2026-05-08 17:11 -16.69737 -48.10105 15736 ft 410 kts 347°
2026-05-08 17:11 -16.66965 -48.10767 15161 ft 406 kts 347°
2026-05-08 17:11 -16.64224 -48.11411 14595 ft 402 kts 348°
2026-05-08 17:12 -16.61503 -48.12041 14039 ft 399 kts 348°
2026-05-08 17:12 -16.58803 -48.12658 13453 ft 395 kts 348°
2026-05-08 17:12 -16.56130 -48.13264 12859 ft 391 kts 348°
2026-05-08 17:12 -16.53486 -48.13862 12314 ft 386 kts 348°
2026-05-08 17:13 -16.50898 -48.14446 11792 ft 382 kts 348°
2026-05-08 17:13 -16.48327 -48.15027 11262 ft 373 kts 348°
2026-05-08 17:13 -16.45851 -48.15586 11055 ft 354 kts 348°
2026-05-08 17:13 -16.43510 -48.16112 10908 ft 335 kts 348°
2026-05-08 17:14 -16.41285 -48.16615 10770 ft 319 kts 348°
2026-05-08 17:14 -16.39163 -48.17095 10631 ft 305 kts 347°
2026-05-08 17:14 -16.37125 -48.17556 10515 ft 295 kts 347°
2026-05-08 17:14 -16.35129 -48.18007 10399 ft 292 kts 348°
2026-05-08 17:15 -16.33144 -48.18456 10285 ft 292 kts 348°
2026-05-08 17:15 -16.31172 -48.18899 10151 ft 286 kts 348°
2026-05-08 17:15 -16.29253 -48.19332 10044 ft 278 kts 348°
2026-05-08 17:15 -16.27371 -48.19756 9830 ft 275 kts 348°
2026-05-08 17:16 -16.25512 -48.20173 9599 ft 272 kts 348°
2026-05-08 17:16 -16.23683 -48.20584 9366 ft 271 kts 348°
2026-05-08 17:16 -16.21836 -48.20998 9135 ft 271 kts 348°
2026-05-08 17:16 -16.20000 -48.21410 8882 ft 269 kts 348°
2026-05-08 17:17 -16.18175 -48.21818 8663 ft 266 kts 348°
2026-05-08 17:17 -16.16375 -48.22222 8432 ft 263 kts 349°
2026-05-08 17:17 -16.14567 -48.22289 8173 ft 261 kts 12°
2026-05-08 17:17 -16.12822 -48.21842 7969 ft 258 kts 14°
2026-05-08 17:18 -16.11091 -48.21389 7756 ft 255 kts 14°
2026-05-08 17:18 -16.09370 -48.20941 7546 ft 255 kts 14°
2026-05-08 17:18 -16.07652 -48.20497 7285 ft 254 kts 13°
2026-05-08 17:18 -16.05933 -48.20055 7009 ft 254 kts 14°
2026-05-08 17:19 -16.04216 -48.19613 6761 ft 254 kts 14°
2026-05-08 17:19 -16.02531 -48.19180 6555 ft 253 kts 14°
2026-05-08 17:19 -16.00818 -48.18740 6328 ft 253 kts 14°
2026-05-08 17:19 -15.99114 -48.18327 6095 ft 250 kts
2026-05-08 17:20 -15.97383 -48.18333 5883 ft 248 kts 355°
2026-05-08 17:20 -15.95671 -48.18479 5671 ft 244 kts 356°
2026-05-08 17:20 -15.94034 -48.18334 5490 ft 233 kts 23°
2026-05-08 17:20 -15.92779 -48.17371 5434 ft 218 kts 45°
2026-05-08 17:21 -15.91923 -48.16138 5406 ft 205 kts 59°
2026-05-08 17:21 -15.91217 -48.14877 5426 ft 201 kts 57°
2026-05-08 17:21 -15.90515 -48.13636 5431 ft 195 kts 58°
2026-05-08 17:21 -15.89828 -48.12431 5438 ft 194 kts 58°
2026-05-08 17:22 -15.89218 -48.11197 5427 ft 194 kts 76°
2026-05-08 17:22 -15.89104 -48.09833 5471 ft 190 kts 84°
2026-05-08 17:22 -15.89007 -48.08461 5462 ft 192 kts 83°
2026-05-08 17:22 -15.88911 -48.07097 5470 ft 186 kts 85°
2026-05-08 17:23 -15.88826 -48.05783 5479 ft 174 kts 85°
2026-05-08 17:23 -15.88744 -48.04516 5436 ft 177 kts 83°
2026-05-08 17:23 -15.88662 -48.03261 5229 ft 170 kts 83°
2026-05-08 17:23 -15.88586 -48.02069 5045 ft 163 kts 84°
2026-05-08 17:24 -15.88511 -48.00916 4830 ft 157 kts 82°
2026-05-08 17:24 -15.88443 -47.99818 4664 ft 148 kts 83°
2026-05-08 17:24 -15.88372 -47.98741 4455 ft 150 kts 83°
2026-05-08 17:24 -15.88301 -47.97666 4282 ft 149 kts 84°
2026-05-08 17:25 -15.88235 -47.96581 4056 ft 148 kts 85°
2026-05-08 17:25 -15.88165 -47.95551 3873 ft 144 kts 85°
2026-05-08 17:25 -15.88102 -47.94520 3654 ft 142 kts 84°
2026-05-08 17:25 -15.88036 -47.93534 3503 ft 129 kts 85°
2026-05-08 17:26 -15.87983 -47.92700 3472 ft 97 kts 86°
2026-05-08 17:26 -15.87948 -47.92157 3467 ft 54 kts 86°
2026-05-08 17:26 -15.87913 -47.91891 3459 ft 32 kts 70°
2026-05-08 17:26 -15.87802 -47.91699 3454 ft 28 kts 56°
2026-05-08 17:27 -15.87719 -47.91570 3455 ft 18 kts 40°
2026-05-08 17:27 -15.87601 -47.91557 3458 ft 17 kts 358°
2026-05-08 17:27 -15.87485 -47.91563 3464 ft 16 kts 357°
2026-05-08 17:27 -15.87372 -47.91570 3470 ft 17 kts 356°
2026-05-08 17:28 -15.87252 -47.91578 3468 ft 17 kts 356°
2026-05-08 17:28 -15.87134 -47.91586 3473 ft 17 kts 356°
2026-05-08 17:28 -15.87057 -47.91626 3473 ft 13 kts 279°
2026-05-08 17:28 -15.87062 -47.91718 3475 ft 13 kts 266°
2026-05-08 17:29 -15.87067 -47.91808 3475 ft 12 kts 266°
2026-05-08 17:29 -15.87084 -47.91858 3473 ft 6 kts 201°
2026-05-08 17:29 -15.87123 -47.91861 3476 ft 6 kts 177°
2026-05-08 17:29 -15.87128 -47.91860 3476 ft 0 kts 176°